Location: Hoyos del Collado
(40.3594°N, 5.2003°W)
Time: 15:12:52
(UTC+00:00)

Cosmos 2263 Rocket - Pass Details

Date: 18 April 2024
Orbit: 824 x 846 km, 71.0° (Epoch: 29 May)

Event Time Altitude Azimuth Distance (km) Brightness Sun altitude
Rises 22:41:30 0° 338° (NNW) 3,387 6.4 -33.6°
Reaches altitude 10° 22:43:59 10° 341° (NNW) 2,446 5.4 -33.8°
Enters shadow 22:47:39 41° 356° (N) 1,188 3.2 -34.1°
